Time,TemperatureF,DewpointF,PressureIn,WindDirection,WindDirectionDegrees,WindSpeedMPH,WindSpeedGustMPH,Humidity,HourlyPrecipIn,Conditions,Clouds,dailyrainin,SolarRadiationWatts/m^2,SoftwareType,DateUTC
2013-12-28 00:22:00,24.0,18.0,-100.00,ENE,72,7.0,11.0,77,0.00,,,0.00,0.000000,,2013-12-28 08:22:00,
2013-12-28 00:32:00,24.0,18.0,-100.00,ENE,72,7.0,11.0,77,0.00,,,0.00,0.000000,,2013-12-28 08:32:00,
2013-12-28 00:42:00,24.0,18.0,-100.00,ENE,72,7.0,11.0,77,0.00,,,0.00,0.000000,,2013-12-28 08:42:00,
2013-12-28 00:52:00,24.0,18.0,-100.00,ENE,72,7.0,11.0,77,0.00,,,0.00,0.000000,,2013-12-28 08:52:00,
2013-12-28 01:21:00,24.0,18.0,-100.00,ENE,68,7.0,11.0,77,0.00,,,0.00,0.000000,,2013-12-28 09:21:00,
2013-12-28 01:32:00,24.0,18.0,-100.00,ENE,68,7.0,11.0,77,0.00,,,0.00,0.000000,,2013-12-28 09:32:00,
2013-12-28 01:43:00,24.0,18.0,-100.00,ENE,68,7.0,11.0,77,0.00,,,0.00,0.000000,,2013-12-28 09:43:00,
2013-12-28 01:53:00,24.0,18.0,-100.00,ENE,68,7.0,11.0,77,0.00,,,0.00,0.000000,,2013-12-28 09:53:00,
2013-12-28 02:22:00,22.0,17.0,-100.00,ENE,67,8.0,12.0,81,0.00,,,0.00,0.000000,,2013-12-28 10:22:00,
2013-12-28 02:33:00,22.0,17.0,-100.00,ENE,67,8.0,12.0,81,0.00,,,0.00,0.000000,,2013-12-28 10:33:00,
2013-12-28 02:43:00,22.0,17.0,-100.00,ENE,67,8.0,12.0,81,0.00,,,0.00,0.000000,,2013-12-28 10:43:00,
2013-12-28 02:53:00,22.0,17.0,-100.00,ENE,67,8.0,12.0,81,0.00,,,0.00,0.000000,,2013-12-28 10:53:00,
2013-12-28 03:22:00,22.0,17.0,-100.00,ENE,75,6.0,12.0,82,0.00,,,0.00,0.000000,,2013-12-28 11:22:00,
2013-12-28 03:33:00,22.0,17.0,-100.00,ENE,75,6.0,12.0,82,0.00,,,0.00,0.000000,,2013-12-28 11:33:00,
2013-12-28 03:43:00,22.0,17.0,-100.00,ENE,75,6.0,12.0,82,0.00,,,0.00,0.000000,,2013-12-28 11:43:00,
2013-12-28 03:52:00,22.0,17.0,-100.00,ENE,75,6.0,12.0,82,0.00,,,0.00,0.000000,,2013-12-28 11:52:00,
2013-12-28 04:23:00,23.0,18.0,-100.00,ENE,63,6.0,10.0,81,0.00,,,0.00,0.000000,,2013-12-28 12:23:00,
2013-12-28 04:32:00,23.0,18.0,-100.00,ENE,63,6.0,10.0,81,0.00,,,0.00,0.000000,,2013-12-28 12:32:00,
2013-12-28 04:42:00,23.0,18.0,-100.00,ENE,63,6.0,10.0,81,0.00,,,0.00,0.000000,,2013-12-28 12:42:00,
2013-12-28 04:52:00,23.0,18.0,-100.00,ENE,63,6.0,10.0,81,0.00,,,0.00,0.000000,,2013-12-28 12:52:00,
2013-12-28 05:21:00,22.0,18.0,-100.00,NE,51,6.0,9.0,83,0.00,,,0.00,0.000000,,2013-12-28 13:21:00,
2013-12-28 05:32:00,22.0,18.0,-100.00,NE,51,6.0,9.0,83,0.00,,,0.00,0.000000,,2013-12-28 13:32:00,
2013-12-28 05:42:00,22.0,18.0,-100.00,NE,51,6.0,9.0,83,0.00,,,0.00,0.000000,,2013-12-28 13:42:00,
2013-12-28 05:52:00,22.0,18.0,-100.00,NE,51,6.0,9.0,83,0.00,,,0.00,0.000000,,2013-12-28 13:52:00,
2013-12-28 06:22:00,24.0,19.0,-100.00,ENE,67,5.0,9.0,81,0.00,,,0.00,0.000000,,2013-12-28 14:22:00,
2013-12-28 06:32:00,24.0,19.0,-100.00,ENE,67,5.0,9.0,81,0.00,,,0.00,0.000000,,2013-12-28 14:32:00,
2013-12-28 06:42:00,24.0,19.0,-100.00,ENE,67,5.0,9.0,81,0.00,,,0.00,0.000000,,2013-12-28 14:42:00,
2013-12-28 06:52:00,24.0,19.0,-100.00,ENE,67,5.0,9.0,81,0.00,,,0.00,0.000000,,2013-12-28 14:52:00,
2013-12-28 07:21:00,23.0,19.0,-100.00,East,82,3.0,9.0,84,0.00,,,0.00,0.000000,,2013-12-28 15:21:00,
2013-12-28 07:33:00,23.0,19.0,-100.00,East,82,3.0,9.0,84,0.00,,,0.00,0.000000,,2013-12-28 15:33:00,
2013-12-28 07:44:00,23.0,19.0,-100.00,East,82,3.0,9.0,84,0.00,,,0.00,0.000000,,2013-12-28 15:44:00,
2013-12-28 07:53:00,23.0,19.0,-100.00,East,82,3.0,9.0,84,0.00,,,0.00,0.000000,,2013-12-28 15:53:00,
2013-12-28 08:23:00,21.0,17.0,-100.00,East,79,4.0,6.0,86,0.00,,,0.00,4.000000,,2013-12-28 16:23:00,
2013-12-28 08:32:00,21.0,17.0,-100.00,East,79,4.0,6.0,86,0.00,,,0.00,4.000000,,2013-12-28 16:32:00,
2013-12-28 08:43:00,21.0,17.0,-100.00,East,79,4.0,6.0,86,0.00,,,0.00,4.000000,,2013-12-28 16:43:00,
2013-12-28 08:53:00,21.0,17.0,-100.00,East,79,4.0,6.0,86,0.00,,,0.00,4.000000,,2013-12-28 16:53:00,
2013-12-28 09:22:00,25.0,20.0,-100.00,NE,43,3.0,6.0,81,0.00,,,0.00,50.000000,,2013-12-28 17:22:00,
2013-12-28 09:32:00,25.0,20.0,-100.00,NE,43,3.0,6.0,81,0.00,,,0.00,50.000000,,2013-12-28 17:32:00,
2013-12-28 09:42:00,25.0,20.0,-100.00,NE,43,3.0,6.0,81,0.00,,,0.00,50.000000,,2013-12-28 17:42:00,
2013-12-28 09:52:00,25.0,20.0,-100.00,NE,43,3.0,6.0,81,0.00,,,0.00,50.000000,,2013-12-28 17:52:00,
2013-12-28 10:22:00,30.0,21.0,-100.00,NE,53,6.0,10.0,69,0.00,,,0.00,190.000000,,2013-12-28 18:22:00,
2013-12-28 10:32:00,30.0,21.0,-100.00,NE,53,6.0,10.0,69,0.00,,,0.00,190.000000,,2013-12-28 18:32:00,
2013-12-28 10:42:00,30.0,21.0,-100.00,NE,53,6.0,10.0,69,0.00,,,0.00,190.000000,,2013-12-28 18:42:00,
2013-12-28 10:52:00,30.0,21.0,-100.00,NE,53,6.0,10.0,69,0.00,,,0.00,190.000000,,2013-12-28 18:52:00,
2013-12-28 11:21:00,38.0,24.0,-100.00,ENE,75,3.0,8.0,56,0.00,,,0.00,182.000000,,2013-12-28 19:21:00,
2013-12-28 11:32:00,38.0,24.0,-100.00,ENE,75,3.0,8.0,56,0.00,,,0.00,182.000000,,2013-12-28 19:32:00,
2013-12-28 11:42:00,38.0,24.0,-100.00,ENE,75,3.0,8.0,56,0.00,,,0.00,182.000000,,2013-12-28 19:42:00,
2013-12-28 11:52:00,38.0,24.0,-100.00,ENE,75,3.0,8.0,56,0.00,,,0.00,182.000000,,2013-12-28 19:52:00,
2013-12-28 12:22:00,43.0,20.0,-100.00,NNE,29,5.0,7.0,39,0.00,,,0.00,448.000000,,2013-12-28 20:22:00,
2013-12-28 12:32:00,43.0,20.0,-100.00,NNE,29,5.0,7.0,39,0.00,,,0.00,448.000000,,2013-12-28 20:32:00,
2013-12-28 12:42:00,43.0,20.0,-100.00,NNE,29,5.0,7.0,39,0.00,,,0.00,448.000000,,2013-12-28 20:42:00,
2013-12-28 12:52:00,43.0,20.0,-100.00,NNE,29,5.0,7.0,39,0.00,,,0.00,448.000000,,2013-12-28 20:52:00,
2013-12-28 13:21:00,46.0,16.0,-100.00,NNE,21,5.0,12.0,29,0.00,,,0.00,470.000000,,2013-12-28 21:21:00,
2013-12-28 13:33:00,46.0,16.0,-100.00,NNE,21,5.0,12.0,29,0.00,,,0.00,470.000000,,2013-12-28 21:33:00,
2013-12-28 13:43:00,46.0,16.0,-100.00,NNE,21,5.0,12.0,29,0.00,,,0.00,470.000000,,2013-12-28 21:43:00,
2013-12-28 13:52:00,46.0,16.0,-100.00,NNE,21,5.0,12.0,29,0.00,,,0.00,470.000000,,2013-12-28 21:52:00,
2013-12-28 14:23:00,47.0,12.0,-100.00,NNE,23,4.0,11.0,24,0.00,,,0.00,429.000000,,2013-12-28 22:23:00,
2013-12-28 14:33:00,47.0,12.0,-100.00,NNE,23,4.0,11.0,24,0.00,,,0.00,429.000000,,2013-12-28 22:33:00,
2013-12-28 14:42:00,47.0,12.0,-100.00,NNE,23,4.0,11.0,24,0.00,,,0.00,429.000000,,2013-12-28 22:42:00,
2013-12-28 14:52:00,47.0,12.0,-100.00,NNE,23,4.0,11.0,24,0.00,,,0.00,429.000000,,2013-12-28 22:52:00,
2013-12-28 15:22:00,47.0,13.0,-100.00,North,9,5.0,10.0,25,0.00,,,0.00,331.000000,,2013-12-28 23:22:00,
2013-12-28 15:32:00,47.0,13.0,-100.00,North,9,5.0,10.0,25,0.00,,,0.00,331.000000,,2013-12-28 23:32:00,
2013-12-28 15:42:00,47.0,13.0,-100.00,North,9,5.0,10.0,25,0.00,,,0.00,331.000000,,2013-12-28 23:42:00,
2013-12-28 15:53:00,47.0,13.0,-100.00,North,9,5.0,10.0,25,0.00,,,0.00,331.000000,,2013-12-28 23:53:00,
2013-12-28 16:22:00,46.0,13.0,-100.00,NNW,348,4.0,8.0,26,0.00,,,0.00,194.000000,,2013-12-29 00:22:00,
2013-12-28 16:31:00,46.0,13.0,-100.00,NNW,348,4.0,8.0,26,0.00,,,0.00,194.000000,,2013-12-29 00:31:00,
2013-12-28 16:42:00,46.0,13.0,-100.00,NNW,348,4.0,8.0,26,0.00,,,0.00,194.000000,,2013-12-29 00:42:00,
2013-12-28 16:52:00,46.0,13.0,-100.00,NNW,348,4.0,8.0,26,0.00,,,0.00,194.000000,,2013-12-29 00:52:00,
2013-12-28 17:22:00,40.0,11.0,-100.00,NW,311,2.0,4.0,30,0.00,,,0.00,35.000000,,2013-12-29 01:22:00,
2013-12-28 17:32:00,40.0,11.0,-100.00,NW,311,2.0,4.0,30,0.00,,,0.00,35.000000,,2013-12-29 01:32:00,
2013-12-28 17:42:00,40.0,11.0,-100.00,NW,311,2.0,4.0,30,0.00,,,0.00,35.000000,,2013-12-29 01:42:00,
2013-12-28 17:52:00,40.0,11.0,-100.00,NW,311,2.0,4.0,30,0.00,,,0.00,35.000000,,2013-12-29 01:52:00,
2013-12-28 18:22:00,36.0,9.0,-100.00,ESE,104,2.0,5.0,32,0.00,,,0.00,0.000000,,2013-12-29 02:22:00,
2013-12-28 18:32:00,36.0,9.0,-100.00,ESE,104,2.0,5.0,32,0.00,,,0.00,0.000000,,2013-12-29 02:32:00,
2013-12-28 18:42:00,36.0,9.0,-100.00,ESE,104,2.0,5.0,32,0.00,,,0.00,0.000000,,2013-12-29 02:42:00,
2013-12-28 18:52:00,36.0,9.0,-100.00,ESE,104,2.0,5.0,32,0.00,,,0.00,0.000000,,2013-12-29 02:52:00,
2013-12-28 19:21:00,33.0,12.0,-100.00,East,95,2.0,4.0,42,0.00,,,-99.99,0.000000,,2013-12-29 03:21:00,
2013-12-28 19:33:00,33.0,12.0,-100.00,East,95,2.0,4.0,42,0.00,,,-99.99,0.000000,,2013-12-29 03:33:00,
2013-12-28 19:43:00,33.0,12.0,-100.00,East,95,2.0,4.0,42,0.00,,,-99.99,0.000000,,2013-12-29 03:43:00,
2013-12-28 19:53:00,33.0,12.0,-100.00,East,95,2.0,4.0,42,0.00,,,-99.99,0.000000,,2013-12-29 03:53:00,
2013-12-28 20:22:00,29.0,12.0,-100.00,East,79,4.0,7.0,49,0.00,,,0.00,0.000000,,2013-12-29 04:22:00,
2013-12-28 20:33:00,29.0,12.0,-100.00,East,79,4.0,7.0,49,0.00,,,0.00,0.000000,,2013-12-29 04:33:00,
2013-12-28 20:42:00,29.0,12.0,-100.00,East,79,4.0,7.0,49,0.00,,,0.00,0.000000,,2013-12-29 04:42:00,
2013-12-28 20:53:00,29.0,12.0,-100.00,East,79,4.0,7.0,49,0.00,,,0.00,0.000000,,2013-12-29 04:53:00,
2013-12-28 21:23:00,27.0,13.0,-100.00,ENE,78,4.0,7.0,56,0.00,,,0.00,0.000000,,2013-12-29 05:23:00,
2013-12-28 21:33:00,27.0,13.0,-100.00,ENE,78,4.0,7.0,56,0.00,,,0.00,0.000000,,2013-12-29 05:33:00,
2013-12-28 21:43:00,27.0,13.0,-100.00,ENE,78,4.0,7.0,56,0.00,,,0.00,0.000000,,2013-12-29 05:43:00,
2013-12-28 21:53:00,27.0,13.0,-100.00,ENE,78,4.0,7.0,56,0.00,,,0.00,0.000000,,2013-12-29 05:53:00,
2013-12-28 22:22:00,28.0,9.0,-100.00,ENE,67,4.0,9.0,44,0.00,,,0.00,0.000000,,2013-12-29 06:22:00,
2013-12-28 22:32:00,28.0,9.0,-100.00,ENE,67,4.0,9.0,44,0.00,,,0.00,0.000000,,2013-12-29 06:32:00,
2013-12-28 22:42:00,28.0,9.0,-100.00,ENE,67,4.0,9.0,44,0.00,,,0.00,0.000000,,2013-12-29 06:42:00,
2013-12-28 22:52:00,28.0,9.0,-100.00,ENE,67,4.0,9.0,44,0.00,,,0.00,0.000000,,2013-12-29 06:52:00,
2013-12-28 23:22:00,28.0,10.0,-100.00,ENE,72,4.0,7.0,47,0.00,,,0.00,0.000000,,2013-12-29 07:22:00,
2013-12-28 23:32:00,28.0,10.0,-100.00,ENE,72,4.0,7.0,47,0.00,,,0.00,0.000000,,2013-12-29 07:32:00,
2013-12-28 23:42:00,28.0,10.0,-100.00,ENE,72,4.0,7.0,47,0.00,,,0.00,0.000000,,2013-12-29 07:42:00,
2013-12-28 23:52:00,28.0,10.0,-100.00,ENE,72,4.0,7.0,47,0.00,,,0.00,0.000000,,2013-12-29 07:52:00,